This demonstration page uses our WeatherBlox Daily Observations layout. Learn more.

Left ArrowRight Arrow

39.12711, -84.51439

Hourly Observations for July 23, 2017

Temp ( °F °C ) Dew Point ( °F °C ) Humidity (%) Winds ( mph kmh ) Pressure ( in mb ) Visibility ( mi km ) Precip ( " mm )
12:04 am 00:04 Cloudy with Strong Thunderstorms 77 25 75 23.9 94 94 W 29 46 29.88 1012 3 4 0.13 3.30
12:08 am 00:08 Cloudy with Strong Thunderstorms 76 24.4 75 23.9 97 97 WSW 24 39 29.88 1012 1 2 0.29 7.37
12:17 am 00:17 Cloudy with Strong Thunderstorms 74 23.3 74 23.3 100 100 WSW 16 26 29.88 1012 2 3 0.47 11.94
12:27 am 00:27 Cloudy with Strong Thunderstorms 74 23.3 74 23.3 100 100 W 6 9 29.85 1011 3 5 0.54 13.72
12:53 am 00:53 Mostly Clear with Thunderstorms 73 22.8 73 22.8 100 100 SE 3 6 29.82 1010 10 16 0.56 14.22
12:57 am 00:57 Mostly Clear with Light Rain 73 22.8 73 22.8 100 100 ESE 3 6 29.83 1010 10 16 N/A
1:06 am 01:06 Partly Cloudy with Nearby Thunderstorms 73 22.8 73 22.8 100 100 ENE 5 7 29.85 1011 10 16 N/A
1:29 am 01:29 Cloudy 73 22.8 73 22.8 100 100 S 6 9 29.85 1011 10 16 N/A
1:37 am 01:37 Cloudy with Nearby Thunderstorms 73 22.8 73 22.8 100 100 SSW 3 6 29.83 1010 10 16 N/A
1:49 am 01:49 Cloudy with Thunderstorms 73 23 73 23 100 100 SW 5 7 29.85 1011 5 8 0.05 1.27
1:53 am 01:53 Cloudy with Strong Thunderstorms 73 22.8 73 22.8 100 100 SE 3 6 29.83 1010 4 6 0.08 2.03
2:18 am 02:18 Cloudy with Rain 73 23 N/A N/A N N/A 29.83 1010 8 13 0.03 0.76
2:26 am 02:26 Cloudy with Thunderstorms 73 23 N/A N/A S 3 6 29.85 1011 7 11 0.04 1.02
2:41 am 02:41 Mostly Cloudy with Nearby Thunderstorms 73 23 N/A N/A SE 5 7 29.85 1011 10 16 0.04 1.02
2:53 am 02:53 Mostly Cloudy with Light Rain 73 23 N/A N/A NE 7 11 29.82 1010 10 16 0.05 1.27
3:50 am 03:50 Mostly Cloudy with Nearby Thunderstorms 73 23 N/A N/A W 6 9 29.83 1010 10 16 N/A
3:53 am 03:53 Mostly Cloudy with Nearby Thunderstorms 73 23 N/A N/A SW 6 9 29.80 1009 10 16 N/A
4:15 am 04:15 Mostly Cloudy with Light Rain 72 22 N/A N/A SSW 7 11 29.83 1010 10 16 0.04 1.02
4:25 am 04:25 Mostly Cloudy with Nearby Thunderstorms 72 22 N/A N/A SSE 9 15 29.80 1009 10 16 0.04 1.02
4:35 am 04:35 Mostly Cloudy with Thunderstorms 72 22 N/A N/A SSE 5 7 29.80 1009 10 16 0.05 1.27
4:50 am 04:50 Mostly Cloudy with Nearby Thunderstorms 72 22 N/A N/A NW 5 7 29.83 1010 10 16 0.06 1.52
4:53 am 04:53 Mostly Cloudy with Light Rain 72 22 N/A N/A VRB 5 7 29.80 1009 10 16 0.06 1.52
5:12 am 05:12 Mostly Cloudy 72 22 N/A N/A SW 5 7 29.83 1010 10 16 N/A
5:53 am 05:53 Mostly Cloudy with Light Rain 72 22 N/A N/A S 7 11 29.81 1010 10 16 N/A
6:11 am 06:11 Mostly Cloudy 72 22 N/A N/A SSW 6 9 29.83 1010 10 16 N/A
7:53 am 07:53 Mostly Cloudy 73 23 73 23 100 100 undefined N/A N/A 2 3 N/A
8:53 am 08:53 Mostly Cloudy 74 23.3 72 22.2 94 94 SSW 5 7 29.84 1011 10 16 N/A
9:53 am 09:53 Mostly Cloudy with Nearby Thunderstorms 74 23.3 70 21.1 88 88 W 13 20 29.88 1012 10 16 N/A
10:12 am 10:12 Mostly Cloudy with Light Rain 74 23.3 69 20.6 85 85 WSW 18 30 29.88 1012 10 16 0.01 0.25
10:53 am 10:53 Cloudy 74 23.3 69 20.6 85 85 W 18 30 29.87 1011 10 16 0.01 0.25
11:53 am 11:53 Mostly Cloudy with Light Rain 74 23.3 71 21.7 91 91 WSW 9 15 29.87 1012 10 16 0.01 0.25
12:53 pm 12:53 Mostly Sunny 76 24.4 72 22.2 88 88 S 6 9 29.78 1008 10 16 N/A
1:53 pm 13:53 Sunny 78 25.6 72 22.2 82 82 SW 9 15 29.77 1008 10 16 N/A
2:53 pm 14:53 Mostly Sunny 80 26.7 72 22.2 76 76 W 9 15 29.81 1010 10 16 N/A
3:53 pm 15:53 Mostly Sunny 84 28.9 74 23.3 72 72 SSW 6 9 29.80 1009 10 16 N/A
4:53 pm 16:53 Mostly Sunny 85 29.4 71 21.7 63 63 WSW 10 17 29.78 1008 10 16 N/A
5:53 pm 17:53 Sunny 85 29.4 72 22.2 65 65 WSW 8 13 29.79 1009 10 16 N/A
6:53 pm 18:53 Mostly Sunny 85 29.4 72 22.2 65 65 SW 9 15 29.76 1008 10 16 N/A
7:53 pm 19:53 Partly Cloudy 82 27.8 73 22.8 74 74 WSW 13 20 29.77 1008 10 16 N/A
8:53 pm 20:53 Sunny 78 25.6 71 21.7 79 79 W 7 11 29.78 1008 10 16 N/A
9:53 pm 21:53 Clear 77 25 72 22.2 85 85 W 6 9 29.82 1010 10 16 N/A
10:53 pm 22:53 Clear 76 24.4 70 21.1 82 82 W 5 7 29.82 1010 10 16 N/A
11:53 pm 23:53 Clear 69 20.6 69 20.6 100 100 SSW 8 13 29.81 1010 10 16 N/A

Powered by AerisWeather